Location: Lake Sonoma
(38.7200°N, 123.0564°W)
Time: 03:25:01
(UTC-07:00)

Amateur Radio Satellites - All Passes

Search period start: 05 September 2015 02:55
Search period end: 06 September 2015 02:55
Location: Lake Sonoma, 38.7200°N, 123.0564°W

Satellite Date Start Highest point End Downlink Frequencies (MHz)
Time Altitude Azimuth
Cosmos 2499 05 Sep 03:07:22 03:13:33 24° 82° (E) 03:20:16 435.465 / 435.565
STARS 05 Sep 03:13:03 03:16:54 31° 71° (ENE) 03:20:52 437.465
ITUPSAT 1 05 Sep 03:21:25 03:25:05 21° 267° (W) 03:28:37 437.325
PCSat 05 Sep 03:25:16 03:27:53 13° 319° (NW) 03:30:17 145.827
GONETS M04 05 Sep 03:36:03 03:44:40 65° 281° (W) 03:53:21
VERMONT LUNAR 05 Sep 03:38:48 03:41:47 65° 352° (N) 03:44:46 437.305
KKS-1 05 Sep 03:43:15 03:47:41 69° 258° (WSW) 03:52:10 437.445
ITAMSAT 1 05 Sep 03:43:57 03:49:09 74° 102° (ESE) 03:54:21 435.822/435.867
Gurwin Techsat 1B 05 Sep 03:54:03 03:59:21 72° 286° (WNW) 04:04:38 435.225
AO-7 05 Sep 03:56:38 04:02:35 22° 92° (E) 04:08:51 29.400- 29.500
O/OREOS (USA 219) 05 Sep 04:06:06 04:10:24 38° 63° (ENE) 04:14:41 437.305
Oscar 19 05 Sep 04:15:37 04:18:38 15° 297° (WNW) 04:21:24 437.125/150
JAS-2 05 Sep 04:16:10 04:22:57 82° 102° (ESE) 04:28:52 435.910
PHONESAT 2.4 05 Sep 04:16:52 04:20:07 42° 156° (SSE) 04:23:23 2401.200-2431.200
MOZHAYETS 4 05 Sep 04:30:26 04:34:54 51° 73° (ENE) 04:39:23
HORYU 2 05 Sep 04:48:06 04:52:17 39° 98° (E) 04:56:26 437.375
STARS 05 Sep 04:49:55 04:53:24 22° 266° (W) 04:56:49 437.465
Cosmos 2499 05 Sep 04:57:25 05:05:57 71° 280° (W) 05:14:51 435.465 / 435.565
VERMONT LUNAR 05 Sep 05:15:20 05:18:19 69° 9° (N) 05:21:17 437.305
ITAMSAT 1 05 Sep 05:25:29 05:28:07 14° 297° (WNW) 05:30:29 435.822/435.867
GONETS M04 05 Sep 05:40:55 05:43:46 11° 305° (NW) 05:45:52
O/OREOS (USA 219) 05 Sep 05:46:16 05:49:34 19° 258° (WSW) 05:52:44 437.305
AO-7 05 Sep 05:47:56 05:56:12 73° 290° (WNW) 06:04:26 29.400- 29.500
PHONESAT 2.4 05 Sep 05:54:31 05:57:56 70° 352° (N) 06:01:20 2401.200-2431.200
JAS-2 05 Sep 06:03:01 06:07:05 16° 302° (WNW) 06:10:37 435.910
MOZHAYETS 4 05 Sep 06:09:55 06:12:29 14° 270° (W) 06:14:50
HORYU 2 05 Sep 06:25:31 06:28:39 18° 293° (WNW) 06:31:37 437.375
PRISM 05 Sep 06:34:08 06:36:06 14° 66° (ENE) 06:38:15 437.425
CUBESAT XI-V 05 Sep 06:37:43 06:42:19 82° 258° (WSW) 06:46:56 437.345
CUTE-I 05 Sep 06:44:11 06:48:33 26° 94° (E) 06:53:00 437.470
STRAND 1 05 Sep 06:48:52 06:53:26 35° 70° (ENE) 06:58:04 437.568
VERMONT LUNAR 05 Sep 06:51:52 06:54:37 34° 205° (SSW) 06:57:19 437.305
Cosmos 2499 05 Sep 06:56:43 07:01:08 14° 303° (WNW) 07:04:57 435.465 / 435.565
YUBILEINY 05 Sep 07:04:05 07:10:50 25° 66° (ENE) 07:17:52 435.215
ISS 05 Sep 07:13:33 07:16:42 48° 137° (SE) 07:19:51 145.825
AIST 1 05 Sep 07:14:40 07:17:38 19° 89° (E) 07:20:44
BRITE-PL 05 Sep 07:21:57 07:24:13 13° 87° (E) 07:26:52 437.365/2234.400
PHONESAT 2.4 05 Sep 07:32:33 07:35:57 72° 9° (N) 07:39:21 2401.200-2431.200
Cubesat XI-IV 05 Sep 07:40:03 07:45:24 88° 98° (E) 07:50:45 437.490
AO-7 05 Sep 07:43:04 07:47:46 16° 309° (NW) 07:52:04 29.400- 29.500
SO-50 05 Sep 07:47:30 07:49:46 13° 38° (NE) 07:52:12 436.795
Cosmos 2491 05 Sep 07:53:05 07:59:32 25° 83° (E) 08:06:20 435.465 / 435.565
PRISM 05 Sep 08:07:14 08:11:11 46° 260° (W) 08:15:07 437.425
CUTE-I 05 Sep 08:23:50 08:28:44 37° 290° (WNW) 08:33:34 437.470
STRAND 1 05 Sep 08:28:30 08:32:44 25° 266° (W) 08:36:51 437.568
PCSat 05 Sep 08:46:54 08:48:03 11° 38° (NE) 08:49:28 145.827
DOVE 4 05 Sep 08:50:30 08:55:10 31° 94° (E) 08:59:47 437.250
ISS 05 Sep 08:50:39 08:53:16 22° 334° (NNW) 08:55:52 145.825
AIST 1 05 Sep 08:51:21 08:55:06 29° 284° (WNW) 08:58:50
CUSAT 1 05 Sep 08:56:33 08:58:50 12° 56° (NE) 09:01:48 437.405
BRITE-PL 05 Sep 08:57:45 09:03:24 82° 283° (WNW) 09:09:07 437.365/2234.400
YUBILEINY 05 Sep 08:59:47 09:08:33 69° 267° (W) 09:17:13 435.215
CINEMA 3 05 Sep 09:00:18 09:03:07 16° 89° (E) 09:06:05 145.822/145.860
GOMX 1 05 Sep 09:01:05 09:06:34 67° 100° (E) 09:11:59 467.674
PHONESAT 2.4 05 Sep 09:10:32 09:13:45 39° 205° (SSW) 09:16:56 2401.200-2431.200
CUTE 1.7 + AOD 2 05 Sep 09:11:08 09:14:48 29° 95° (E) 09:18:30 437.475
Cosmos 2504 05 Sep 09:12:35 09:18:21 21° 64° (ENE) 09:24:15 435.465 / 435.565
Cubesat XI-IV 05 Sep 09:22:49 09:24:51 12° 299° (WNW) 09:26:33 437.490
HO-68 05 Sep 09:23:03 09:29:58 48° 99° (E) 09:36:53 435.675
CANX-2 05 Sep 09:25:40 09:29:45 49° 99° (E) 09:33:50 2200.000
SO-50 05 Sep 09:26:14 09:31:11 80° 58° (ENE) 09:35:59 436.795
ANTELSAT 05 Sep 09:37:01 09:38:49 12° 64° (ENE) 09:40:51 437.575/2403.000
SEEDS 05 Sep 09:37:56 09:41:58 47° 99° (E) 09:46:00 437.485
AUBIESAT-1 05 Sep 09:44:14 09:46:24 14° 61° (ENE) 09:48:46 437.475
Cosmos 2491 05 Sep 09:47:09 09:55:47 65° 281° (W) 10:04:26 435.465 / 435.565
UWE-3 05 Sep 09:49:28 09:52:09 16° 90° (E) 09:54:57 435.000/436.395/437.385
COMPASS 1 05 Sep 09:51:13 09:55:16 52° 99° (E) 09:59:18 437.405
CUBEBUG 2 05 Sep 09:52:37 09:56:15 23° 93° (E) 09:59:51 437.445
M-CUBED/EXP-1 PRIME 05 Sep 09:53:21 09:56:42 20° 63° (ENE) 10:00:08 437.505
AAUSAT CUBESAT 2 05 Sep 09:56:51 10:00:53 50° 99° (E) 10:04:54 437.432
DANDE 05 Sep 09:58:42 10:04:57 25° 67° (ENE) 10:11:47 436.750
Oscar 11 05 Sep 10:11:38 10:15:28 31° 96° (E) 10:19:20 145.826/435.025
UNISAT 6 05 Sep 10:25:01 10:29:20 38° 72° (ENE) 10:33:44 437.425
PCSat 05 Sep 10:27:18 10:32:42 62° 59° (ENE) 10:38:04 145.827
DOVE 4 05 Sep 10:28:10 10:32:50 31° 290° (WNW) 10:37:20 437.250
DUCHIFAT 1 05 Sep 10:32:34 10:34:46 14° 66° (ENE) 10:37:11 145.980
CUSAT 1 05 Sep 10:35:14 10:43:13 59° 76° (ENE) 10:51:10 437.405
POLYITAN 1 05 Sep 10:35:51 10:38:32 17° 67° (ENE) 10:41:24 437.675
CINEMA 3 05 Sep 10:35:53 10:40:43 53° 286° (WNW) 10:45:21 145.822/145.860
POPSAT HIP 1 05 Sep 10:36:23 10:39:02 17° 67° (ENE) 10:41:50 437.405
BRITE-PL 05 Sep 10:39:09 10:41:11 12° 298° (WNW) 10:42:52 437.365/2234.400
GOMX 1 05 Sep 10:40:38 10:44:09 17° 295° (WNW) 10:47:25 467.674
CUTE 1.7 + AOD 2 05 Sep 10:47:19 10:50:35 21° 291° (WNW) 10:53:43 437.475
NANOSAT C BR1 05 Sep 10:50:47 10:54:07 23° 69° (ENE) 10:57:34 145.865
TIGRISAT 05 Sep 10:51:02 10:55:42 70° 75° (ENE) 11:00:25 435.000
QB50P2 05 Sep 10:53:44 10:57:17 27° 70° (ENE) 11:00:55 145.880/145.840
YUBILEINY 05 Sep 11:01:42 11:03:57 11° 284° (WNW) 11:05:22 435.215
CANX-2 05 Sep 11:03:07 11:05:17 14° 294° (WNW) 11:07:17 2200.000
Cosmos 2504 05 Sep 11:03:19 11:11:43 77° 266° (W) 11:19:29 435.465 / 435.565
ZACube-1 05 Sep 11:05:50 11:10:18 87° 102° (ESE) 11:14:37 437.345
QB50P1 05 Sep 11:06:07 11:09:58 35° 72° (ENE) 11:13:54 145.935-145.965
HUMSAT D 05 Sep 11:08:13 11:12:00 32° 96° (E) 11:15:45 437.325/437.525
FUNcube-1 05 Sep 11:08:47 11:13:15 90° 246° (WSW) 11:17:34 145.935
SO-50 05 Sep 11:09:41 11:11:07 11° 253° (WSW) 11:12:14 436.795
ANTELSAT 05 Sep 11:10:22 11:15:03 70° 259° (W) 11:19:47 437.575/2403.000
HO-68 05 Sep 11:11:14 11:17:28 32° 296° (WNW) 11:23:33 435.675
SEEDS 05 Sep 11:15:11 11:17:23 14° 293° (WNW) 11:19:24 437.485
AUBIESAT-1 05 Sep 11:15:56 11:20:39 69° 254° (WSW) 11:25:15 437.475
DELFI C3 05 Sep 11:19:22 11:23:19 61° 285° (WNW) 11:27:13 145.870
50 SAT 05 Sep 11:22:04 11:24:36 17° 93° (E) 11:27:13 437.505
VELOX 1 05 Sep 11:22:53 11:25:38 16° 91° (E) 11:28:34 145.980
UWE-3 05 Sep 11:24:38 11:28:58 43° 287° (WNW) 11:33:07 435.000/436.395/437.385
M-CUBED/EXP-1 PRIME 05 Sep 11:26:35 11:31:11 46° 257° (WSW) 11:35:41 437.505
COMPASS 1 05 Sep 11:28:42 11:30:31 12° 294° (WNW) 11:32:09 437.405
CUBEBUG 2 05 Sep 11:28:52 11:32:59 31° 290° (WNW) 11:36:54 437.445
AAUSAT CUBESAT 2 05 Sep 11:34:11 11:36:04 13° 294° (WNW) 11:37:47 437.432
DANDE 05 Sep 11:40:41 11:48:46 75° 264° (W) 11:57:15 436.750
DX 1 05 Sep 11:48:08 11:52:24 49° 100° (E) 11:56:40 434.975-435.025
Oscar 11 05 Sep 11:48:13 11:51:29 21° 291° (WNW) 11:54:38 145.826/435.025
BUGSAT 1 05 Sep 11:50:32 11:54:35 67° 76° (ENE) 11:58:43 437.445
Cosmos 2491 05 Sep 11:52:11 11:54:54 11° 305° (NW) 11:56:52 435.465 / 435.565
UKube-1 05 Sep 11:52:26 11:56:40 49° 99° (E) 12:00:53 .
GONETS M04 05 Sep 11:56:28 11:57:13 10° 54° (NE) 11:58:47
UNISAT 6 05 Sep 12:02:43 12:06:15 20° 268° (W) 12:09:41 437.425
DUCHIFAT 1 05 Sep 12:06:07 12:10:12 47° 261° (W) 12:14:20 145.980
ISS 05 Sep 12:07:11 12:08:17 11° 14° (NNE) 12:09:25 145.825
POLYITAN 1 05 Sep 12:10:07 12:14:09 40° 262° (W) 12:18:12 437.675
POPSAT HIP 1 05 Sep 12:10:35 12:14:36 40° 262° (W) 12:18:39 437.405
PCSat 05 Sep 12:12:13 12:15:39 17° 254° (WSW) 12:18:49 145.827
CUBEBUG 1 05 Sep 12:15:43 12:19:53 39° 98° (E) 12:24:03 437.445
Oscar 19 05 Sep 12:16:17 12:16:31 10° 61° (ENE) 12:17:06 437.125/150
CUSAT 1 05 Sep 12:18:28 12:25:25 31° 272° (W) 12:32:05 437.405
NANOSAT C BR1 05 Sep 12:26:10 12:29:51 27° 265° (W) 12:33:29 145.865
QB50P2 05 Sep 12:29:37 12:33:08 24° 266° (W) 12:36:36 145.880/145.840
AISAT 05 Sep 12:31:19 12:35:50 81° 284° (WNW) 12:40:18 437.250
TIGRISAT 05 Sep 12:31:39 12:33:00 11° 272° (W) 12:34:02 435.000
ESTCUBE 1 05 Sep 12:37:28 12:42:00 86° 105° (ESE) 12:46:31 437.505/2401.250
QB50P1 05 Sep 12:42:58 12:45:58 18° 268° (W) 12:48:51 145.935-145.965
HUMSAT D 05 Sep 12:44:28 12:47:31 19° 292° (WNW) 12:50:25 437.325/437.525
JUGNU 05 Sep 12:47:00 12:48:59 12° 178° (S) 12:50:57 437.505
50 SAT 05 Sep 12:55:49 12:59:11 29° 288° (WNW) 13:02:29 437.505
VELOX 1 05 Sep 12:58:10 13:02:25 42° 288° (WNW) 13:06:38 145.980
Cosmos 2504 05 Sep 12:59:12 13:02:33 12° 283° (WNW) 13:05:12 435.465 / 435.565
ITAMSAT 1 05 Sep 13:25:11 13:26:54 12° 62° (ENE) 13:28:55 435.822/435.867
DX 1 05 Sep 13:25:44 13:28:16 15° 294° (WNW) 13:30:38 434.975-435.025
SPROUT 05 Sep 13:26:25 13:30:46 76° 102° (ESE) 13:35:05 437.525
DANDE 05 Sep 13:26:40 13:31:04 15° 277° (W) 13:34:56 436.750
UKube-1 05 Sep 13:29:57 13:32:25 15° 294° (WNW) 13:34:42 .
Gurwin Techsat 1B 05 Sep 13:35:53 13:39:30 20° 65° (ENE) 13:43:18 435.225
ISS 05 Sep 13:42:20 13:45:24 39° 33° (NNE) 13:48:29 145.825
ITUPSAT 1 05 Sep 13:47:44 13:48:04 10° 88° (E) 13:48:45 437.325
GONETS M04 05 Sep 13:47:47 13:56:30 61° 78° (ENE) 14:05:13
Oscar 19 05 Sep 13:49:58 13:55:08 83° 77° (ENE) 14:00:23 437.125/150
CUBEBUG 1 05 Sep 13:52:52 13:55:58 18° 292° (WNW) 13:58:56 437.445
SRMSAT 05 Sep 14:07:23 14:08:54 11° 175° (S) 14:10:29 437.500
TISAT 1 05 Sep 14:09:21 14:13:36 63° 285° (WNW) 14:17:47 437.305
BEESAT 3 05 Sep 14:09:32 14:13:35 81° 120° (ESE) 14:17:41 437.485
BEESAT 05 Sep 14:14:38 14:18:15 22° 93° (E) 14:21:59 436.000
JAS-2 05 Sep 14:24:47 14:31:40 37° 67° (ENE) 14:38:42 435.910
BEESAT 2 05 Sep 14:29:37 14:33:43 83° 301° (WNW) 14:37:51 435.950
RS-15 05 Sep 14:31:05 14:39:38 29° 105° (ESE) 14:48:49 29.354- 29.394
SWISSCUBE 05 Sep 14:40:43 14:45:17 45° 99° (E) 14:49:51 437.505
Cosmos 2499 05 Sep 14:51:19 14:59:12 41° 72° (ENE) 15:06:39 435.465 / 435.565
AO-7 05 Sep 14:54:17 15:01:05 30° 59° (ENE) 15:08:04 29.400- 29.500
ITAMSAT 1 05 Sep 15:00:37 15:05:48 84° 259° (W) 15:11:00 435.822/435.867
Gurwin Techsat 1B 05 Sep 15:13:58 15:19:08 52° 260° (W) 15:24:19 435.225
ISS 05 Sep 15:19:11 15:21:39 20° 228° (SW) 15:24:03 145.825
ITUPSAT 1 05 Sep 15:21:49 15:26:35 74° 285° (WNW) 15:31:21 437.325
Oscar 19 05 Sep 15:34:23 15:35:16 10° 273° (W) 15:35:45 437.125/150
KKS-1 05 Sep 15:36:11 15:39:50 25° 94° (E) 15:43:33 437.445
AIST 2 05 Sep 15:42:38 15:46:52 73° 302° (WNW) 15:51:07 435.215
HORYU 2 05 Sep 15:45:03 15:49:00 32° 70° (ENE) 15:53:01 437.375
GONETS M04 05 Sep 15:45:39 15:52:49 28° 276° (W) 15:59:43
BEESAT 3 05 Sep 15:50:31 15:52:06 12° 319° (NW) 15:53:31 437.485
BEESAT 05 Sep 15:51:52 15:56:13 36° 289° (WNW) 16:00:30 436.000
SRMSAT 05 Sep 15:55:49 15:57:11 11° 186° (S) 15:58:30 437.500
JAS-2 05 Sep 16:09:02 16:16:30 48° 263° (W) 16:23:59 435.910
BEESAT 2 05 Sep 16:11:59 16:12:28 10° 320° (NW) 16:12:46 435.950
SWISSCUBE 05 Sep 16:19:31 16:22:49 18° 294° (WNW) 16:25:58 437.505
MOZHAYETS 4 05 Sep 16:28:36 16:30:39 13° 89° (E) 16:32:58
STARS 05 Sep 16:39:37 16:44:05 74° 102° (ESE) 16:48:30 437.465
RS-15 05 Sep 16:40:12 16:51:07 72° 305° (NW) 17:02:31 29.354- 29.394
Cosmos 2499 05 Sep 16:44:37 16:52:21 39° 273° (W) 16:59:26 435.465 / 435.565
AO-7 05 Sep 16:45:10 16:53:25 62° 257° (WSW) 17:01:40 29.400- 29.500
KKS-1 05 Sep 17:12:34 17:16:27 28° 290° (WNW) 17:20:16 437.445
HORYU 2 05 Sep 17:22:06 17:25:41 22° 266° (W) 17:29:10 437.375
Cubesat XI-IV 05 Sep 17:23:29 17:26:31 16° 63° (ENE) 17:29:47 437.490
MOZHAYETS 4 05 Sep 18:03:50 18:08:18 54° 285° (WNW) 18:12:43
CUTE-I 05 Sep 18:04:40 18:09:29 38° 70° (ENE) 18:14:23 437.470
Cosmos 2491 05 Sep 18:07:41 18:08:23 10° 54° (NE) 18:09:52 435.465 / 435.565
O/OREOS (USA 219) 05 Sep 18:16:41 18:21:07 57° 108° (ESE) 18:25:38 437.305
STARS 05 Sep 18:19:02 18:19:58 10° 297° (WNW) 18:20:38 437.465
BRITE-PL 05 Sep 18:34:11 18:34:15 10° 61° (ENE) 18:34:36 437.365/2234.400
CUBESAT XI-V 05 Sep 18:36:04 18:40:00 27° 95° (E) 18:44:01 437.345
RS-15 05 Sep 18:57:19 19:06:10 25° 334° (NNW) 19:15:02 29.354- 29.394
AIST 1 05 Sep 18:59:01 19:03:18 54° 80° (E) 19:07:35
Cubesat XI-IV 05 Sep 19:00:52 19:06:08 65° 258° (WSW) 19:11:27 437.490
STRAND 1 05 Sep 19:02:23 19:04:28 13° 89° (E) 19:06:52 437.568
CUTE-I 05 Sep 19:45:18 19:49:41 25° 266° (W) 19:53:59 437.470
HO-68 05 Sep 19:50:39 19:56:44 32° 64° (ENE) 20:03:00 435.675
PRISM 05 Sep 19:50:53 19:54:16 25° 95° (E) 19:57:42 437.425
DOVE 4 05 Sep 19:54:52 19:58:45 26° 68° (ENE) 20:02:55 437.250
O/OREOS (USA 219) 05 Sep 19:58:21 20:01:01 15° 306° (NW) 20:03:30 437.305
Cosmos 2491 05 Sep 19:58:59 20:07:38 61° 78° (ENE) 20:16:19 435.465 / 435.565
CINEMA 3 05 Sep 20:01:22 20:03:35 14° 64° (ENE) 20:06:05 145.822/145.860
CUTE 1.7 + AOD 2 05 Sep 20:03:18 20:06:15 19° 69° (ENE) 20:09:20 437.475
YUBILEINY 05 Sep 20:03:48 20:10:50 29° 85° (E) 20:18:10 435.215
BRITE-PL 05 Sep 20:07:31 20:12:00 83° 260° (W) 20:16:53 437.365/2234.400
GOMX 1 05 Sep 20:07:50 20:12:21 57° 74° (ENE) 20:17:17 467.674
CUBESAT XI-V 05 Sep 20:13:25 20:17:24 28° 290° (WNW) 20:21:19 437.345
CANX-2 05 Sep 20:17:21 20:21:05 30° 71° (ENE) 20:24:51 2200.000
SEEDS 05 Sep 20:28:46 20:32:23 28° 71° (ENE) 20:36:03 437.485
AIST 1 05 Sep 20:39:03 20:40:31 11° 274° (W) 20:41:43
STRAND 1 05 Sep 20:39:10 20:44:15 68° 286° (WNW) 20:49:20 437.568
COMPASS 1 05 Sep 20:41:08 20:44:47 30° 72° (ENE) 20:48:29 437.405
UWE-3 05 Sep 20:46:07 20:48:07 13° 65° (ENE) 20:50:21 435.000/436.395/437.385
AAUSAT CUBESAT 2 05 Sep 20:46:22 20:49:57 29° 71° (ENE) 20:53:35 437.432
CUBEBUG 2 05 Sep 20:49:47 20:52:57 19° 67° (ENE) 20:56:18 437.445
Oscar 11 05 Sep 21:05:33 21:08:51 22° 69° (ENE) 21:12:14 145.826/435.025
RS-15 05 Sep 21:17:04 21:24:21 18° 9° (N) 21:31:59 29.354- 29.394
PRISM 05 Sep 21:26:15 21:29:38 24° 290° (WNW) 21:32:56 437.425
DOVE 4 05 Sep 21:32:06 21:36:22 32° 266° (W) 21:40:49 437.250
CINEMA 3 05 Sep 21:35:26 21:40:12 68° 260° (W) 21:45:09 145.822/145.860
HO-68 05 Sep 21:37:22 21:44:15 48° 261° (W) 21:51:08 435.675
CUTE 1.7 + AOD 2 05 Sep 21:38:01 21:41:57 34° 263° (W) 21:45:51 437.475
Cosmos 2504 05 Sep 21:43:16 21:47:19 15° 78° (ENE) 21:52:01 435.465 / 435.565
GOMX 1 05 Sep 21:48:34 21:51:04 14° 273° (W) 21:53:23 467.674
CANX-2 05 Sep 21:53:43 21:57:03 21° 267° (W) 22:00:16 2200.000
Cosmos 2491 05 Sep 21:56:54 22:03:59 27° 276° (W) 22:10:47 435.465 / 435.565
YUBILEINY 05 Sep 21:58:35 22:07:12 57° 283° (WNW) 22:15:53 435.215
HUMSAT D 05 Sep 21:58:55 22:02:08 21° 69° (ENE) 22:05:26 437.325/437.525
ZACube-1 05 Sep 21:59:49 22:04:17 58° 75° (ENE) 22:08:50 437.345
FUNcube-1 05 Sep 22:02:31 22:07:00 60° 74° (ENE) 22:11:33 145.935
DELFI C3 05 Sep 22:04:37 22:08:37 64° 76° (ENE) 22:12:37 145.870
SEEDS 05 Sep 22:04:49 22:08:10 22° 266° (W) 22:11:27 437.485
COMPASS 1 05 Sep 22:17:18 22:20:30 20° 267° (W) 22:23:35 437.405
UWE-3 05 Sep 22:19:30 22:24:07 65° 260° (W) 22:28:47 435.000/436.395/437.385
VELOX 1 05 Sep 22:20:15 22:22:15 13° 65° (ENE) 22:24:28 145.980
AAUSAT CUBESAT 2 05 Sep 22:22:20 22:25:34 21° 267° (W) 22:28:42 437.432
CUBEBUG 2 05 Sep 22:24:48 22:29:17 44° 262° (W) 22:33:52 437.445
BEESAT 3 05 Sep 22:29:23 22:32:59 31° 52° (NE) 22:36:33 437.485
Oscar 11 05 Sep 22:41:00 22:44:52 30° 264° (W) 22:48:42 145.826/435.025
DX 1 05 Sep 22:42:29 22:46:25 36° 71° (ENE) 22:50:26 434.975-435.025
TIGRISAT 05 Sep 22:45:42 22:48:20 16° 90° (E) 22:51:06 435.000
UKube-1 05 Sep 22:45:58 22:49:52 35° 71° (ENE) 22:53:50 .
BEESAT 2 05 Sep 22:49:58 22:53:46 37° 53° (NE) 22:57:31 435.950
ANTELSAT 05 Sep 23:04:24 23:08:10 26° 94° (E) 23:11:55 437.575/2403.000
CUBEBUG 1 05 Sep 23:10:50 23:14:28 28° 70° (ENE) 23:18:13 437.445
M-CUBED/EXP-1 PRIME 05 Sep 23:11:24 23:12:41 12° 94° (E) 23:14:09 437.505
DANDE 05 Sep 23:11:31 23:13:14 13° 81° (E) 23:15:24 436.750
AISAT 05 Sep 23:27:26 23:31:50 76° 74° (ENE) 23:36:17 437.250
Cosmos 2504 05 Sep 23:30:06 23:38:21 85° 94° (E) 23:47:01 435.465 / 435.565
RS-15 05 Sep 23:30:46 23:41:30 39° 41° (NE) 23:52:46 29.354- 29.394
HUMSAT D 05 Sep 23:33:47 23:37:40 32° 264° (W) 23:41:33 437.325/437.525
ESTCUBE 1 05 Sep 23:35:35 23:40:01 66° 75° (ENE) 23:44:29 437.505/2401.250
BUGSAT 1 05 Sep 23:36:19 23:37:30 11° 89° (E) 23:38:57 437.445
50 SAT 05 Sep 23:36:54 23:40:51 68° 259° (W) 23:44:47 437.505
ZACube-1 05 Sep 23:38:54 23:41:05 13° 271° (W) 23:43:00 437.345
SO-50 05 Sep 23:39:19 23:43:38 36° 114° (ESE) 23:48:07 436.795
CUSAT 1 05 Sep 23:40:40 23:44:48 52° 93° (E) 23:50:24 437.405
FUNcube-1 05 Sep 23:41:47 23:43:46 12° 272° (W) 23:45:31 145.935
DUCHIFAT 1 05 Sep 23:52:12 23:55:55 29° 96° (E) 23:59:39 145.980
VELOX 1 05 Sep 23:54:02 23:58:22 56° 260° (W) 00:02:43 145.980
UNISAT 6 05 Sep 23:54:44 23:59:16 82° 284° (WNW) 00:03:39 437.425
POLYITAN 1 05 Sep 23:56:42 00:00:38 35° 97° (E) 00:04:34 437.675
POPSAT HIP 1 05 Sep 23:56:56 00:00:51 34° 97° (E) 00:04:46 437.405
AIST 2 06 Sep 00:05:38 00:09:40 46° 55° (NE) 00:13:39 435.215
BEESAT 3 06 Sep 00:07:38 00:10:44 21° 248° (WSW) 00:13:43 437.485
NANOSAT C BR1 06 Sep 00:11:34 00:15:45 50° 99° (E) 00:19:54 145.865
QB50P2 06 Sep 00:15:13 00:19:28 59° 100° (E) 00:23:41 145.880/145.840
SPROUT 06 Sep 00:19:01 00:23:08 48° 74° (ENE) 00:27:19 437.525
DX 1 06 Sep 00:19:45 00:22:49 18° 267° (W) 00:25:46 434.975-435.025
TIGRISAT 06 Sep 00:21:05 00:25:23 43° 287° (WNW) 00:29:32 435.000
UKube-1 06 Sep 00:23:03 00:26:08 18° 267° (W) 00:29:06 .
QB50P1 06 Sep 00:27:41 00:32:00 81° 103° (ESE) 00:36:16 145.935-145.965
BEESAT 2 06 Sep 00:28:47 00:31:31 17° 249° (WSW) 00:34:07 435.950
AUBIESAT-1 06 Sep 00:33:00 00:36:43 66° 290° (WNW) 00:40:08 437.475
ANTELSAT 06 Sep 00:41:07 00:44:54 26° 290° (WNW) 00:48:30 437.575/2403.000
M-CUBED/EXP-1 PRIME 06 Sep 00:44:19 00:47:51 38° 293° (WNW) 00:51:07 437.505
CUBEBUG 1 06 Sep 00:47:18 00:50:50 24° 266° (W) 00:54:17 437.445
DANDE 06 Sep 00:51:43 00:55:28 45° 287° (WNW) 01:00:30 436.750
ITUPSAT 1 06 Sep 00:53:02 00:54:33 12° 63° (ENE) 00:56:20 437.325
VERMONT LUNAR 06 Sep 00:55:57 00:58:21 22° 151° (SSE) 01:00:46 437.305
GONETS M04 06 Sep 00:57:44 00:59:50 11° 77° (ENE) 01:02:44
TISAT 1 06 Sep 00:59:40 01:03:52 79° 76° (ENE) 01:08:08 437.305
PCSat 06 Sep 01:07:20 01:12:43 76° 117° (ESE) 01:18:10 145.827
BUGSAT 1 06 Sep 01:09:10 01:13:23 57° 285° (WNW) 01:17:32 437.445
ESTCUBE 1 06 Sep 01:16:39 01:17:25 10° 272° (W) 01:17:52 437.505/2401.250
SO-50 06 Sep 01:20:02 01:24:14 28° 312° (NW) 01:28:29 436.795
BEESAT 06 Sep 01:20:04 01:23:42 23° 68° (ENE) 01:27:27 436.000
CUSAT 1 06 Sep 01:25:06 01:28:13 16° 301° (WNW) 01:31:37 437.405
Cosmos 2504 06 Sep 01:25:54 01:31:51 20° 297° (WNW) 01:37:30 435.465 / 435.565
DUCHIFAT 1 06 Sep 01:28:12 01:31:35 22° 291° (WNW) 01:34:51 145.980
POLYITAN 1 06 Sep 01:33:11 01:36:18 19° 292° (WNW) 01:39:16 437.675
POPSAT HIP 1 06 Sep 01:33:22 01:36:30 19° 292° (WNW) 01:39:30 437.405
RS-15 06 Sep 01:43:08 01:54:58 70° 244° (WSW) 02:07:04 29.354- 29.394
AIST 2 06 Sep 01:45:28 01:47:52 15° 250° (WSW) 01:50:03 435.215
SWISSCUBE 06 Sep 01:45:55 01:50:26 45° 72° (ENE) 01:54:58 437.505
NANOSAT C BR1 06 Sep 01:48:55 01:51:11 14° 294° (WNW) 01:53:15 145.865
QB50P2 06 Sep 01:53:08 01:54:53 12° 295° (WNW) 01:56:26 145.880/145.840
SPROUT 06 Sep 01:57:17 01:59:32 13° 270° (W) 02:01:35 437.525
Oscar 19 06 Sep 02:03:17 02:07:55 32° 96° (E) 02:12:34 437.125/150
ITUPSAT 1 06 Sep 02:27:08 02:31:54 75° 258° (WSW) 02:36:41 437.325
VERMONT LUNAR 06 Sep 02:31:30 02:34:31 89° 24° (NNE) 02:37:31 437.305
KKS-1 06 Sep 02:33:31 02:36:43 20° 68° (ENE) 02:40:04 437.445
